Regional Weather Roundup
Issued by NWS

Home | Current Version | Previous Version | Graphics & Text | Print | Product List | Glossary On
Versions: 1 2 3 4 5 6 7 8 9 10 11 12 13 14 15 16 17 18 19 20 21 22 23 24 25 26 27 28 29 30 31 32 33 34 35 36 37 38 39 40 41 42 43 44 45 46 47 48 49 50
507
ASUS43 KLSX 290410
RWRMO

WEATHER SUMMARY FOR MISSOURI
NATIONAL WEATHER SERVICE SPRINGFIELD MO
1100 PM CDT THU JUL 28 2016

NOTE: "FAIR" INDICATES FEW OR NO CLOUDS BELOW 12,000 FEET WITH NO
       SIGNIFICANT WEATHER AND/OR OBSTRUCTIONS TO VISIBILITY.
       CURRENT SKY AND/OR WEATHER CONDITIONS ARE NOT AVAILABLE FOR
       CHILLICOTHE AND FARMINGTON.

MOZ001>031-035>038-043-044-053-054-290500-
...NORTHERN AND WESTERN MISSOURI...

CITY           SKY/WX    TMP DP  RH WIND       PRES   REMARKS
KANSAS CTY INT CLOUDY    75  66  73 N6        29.99F
KANSAS C DTWN  CLOUDY    80  66  62 N5        29.97S
LEE`S SUMMIT   CLOUDY    78  67  68 CALM      30.00R
ST JOSEPH      MOCLDY    73  68  84 NE6       29.98F
CHILLICOTHE      N/A     72  66  81 CALM      30.00R
KIRKSVILLE     CLEAR     66  64  93 NW3       29.99R

$$
MOZ066>068-077>081-088>096-101>105-290500-
...SOUTHWEST MISSOURI...

CITY           SKY/WX    TMP DP  RH WIND       PRES   REMARKS
SPRINGFIELD    PTCLDY    76  70  82 CALM      29.99R
JOPLIN         PTCLDY    76  73  91 NW3       30.00R
BRANSON        MOCLDY    73  72  94 CALM      29.99R

$$
MOZ032>034-039>042-045>050-055>058-069>072-290500-
...CENTRAL MISSOURI...

CITY           SKY/WX    TMP DP  RH WIND       PRES   REMARKS
COLUMBIA       CLEAR     72  71  97 CALM      29.97R
JEFFERSON CITY PTCLDY    73  70  90 N5        29.95R
ROLLA          CLEAR     70  68  93 CALM      29.95S
SEDALIA        CLEAR     76  73  91 SW5       29.98R
WHITEMAN AFB   PTCLDY    76  73  91 W2        29.96R
OSAGE BEACH    CLEAR     72  71  97 CALM      29.97R

$$
MOZ051-052-059>065-290500-
...EAST CENTRAL MISSOURI...

CITY           SKY/WX    TMP DP  RH WIND       PRES   REMARKS
ST LOUIS INTL  CLOUDY    80  71  74 N5        29.93R
SPIRIT OF STL  CLOUDY    80  73  79 NW5       29.92R
ST CHARLES     CLOUDY    78  71  79 N6        29.91R

$$
MOZ072>076-082>087-097>100-106>115-290500-
...SOUTH CENTRAL AND SOUTHEAST MISSOURI...

CITY           SKY/WX    TMP DP  RH WIND       PRES   REMARKS
CAPE GIRARDEAU MOCLDY    73  71  93 N7        29.92R
FARMINGTON     MOCLDY    74  70  87 S6        29.95S
POPLAR BLUFF   CLOUDY    75  71  87 S6        29.91F
WEST PLAINS    CLOUDY    70  67  90 CALM      30.00R

$$




USA.gov is the U.S. government's official web portal to all federal, state and local government web resources and services.